Hourly Data Report for July 19, 2017

TORONTO CITY
ONTARIO

43°40'00.000" N
79°24'00.000" W
112.50 m
6158355
71508
XTO

Download Data

Hourly Data (July 2017)
Hourly Data Report for July 19, 2017
TIME
LST
Temp Definition
°C
Dew Point Definition
°C
Rel Hum Definition
%
Precip. Amount Definition
mm

Wind Dir Definition
10's deg

Wind Spd Definition
km/h
Visibility Definition
km
Stn Press Definition
kPa
Hmdx Definition


Wind Chill Definition


Weather Definition


00:00 20.8 15.9 73 0.0 LegendMM LegendMM   100.38 25   LegendNANA
01:00 20.8 16.0 74 0.0 LegendMM LegendMM   100.32 25   LegendNANA
02:00 20.3 16.3 78 0.0 LegendMM LegendMM   100.32 25   LegendNANA
03:00 19.7 16.6 82 0.0 LegendMM LegendMM   100.29     LegendNANA
04:00 20.2 16.1 77 0.0 LegendMM LegendMM   100.29 25   LegendNANA
05:00 20.3 15.8 76 0.0 LegendMM LegendMM   100.31 25   LegendNANA
06:00 21.3 15.4 69 0.0 LegendMM LegendMM   100.33 26   LegendNANA
07:00 21.9 15.4 67 0.0 LegendMM LegendMM   100.33 26   LegendNANA
08:00 22.6 15.4 64 0.0 LegendMM LegendMM   100.33 27   LegendNANA
09:00 24.2 16.6 63 0.0 LegendMM LegendMM   100.31 29   LegendNANA
10:00 27.0 16.8 53 0.0 LegendMM LegendMM   100.31 32   LegendNANA
11:00 27.5 15.6 48 0.0 LegendMM LegendMM   100.30 32   LegendNANA
12:00 28.3 15.7 46 0.0 LegendMM LegendMM   100.27 33   LegendNANA
13:00 29.0 16.1 46 0.0 LegendMM LegendMM   100.23 34   LegendNANA
14:00 30.0 16.5 44 0.0 LegendMM LegendMM   100.18 35   LegendNANA
15:00 30.2 16.4 43 0.0 LegendMM LegendMM   100.15 35   LegendNANA
16:00 30.0 17.8 48 0.0 LegendMM LegendMM   100.09 36   LegendNANA
17:00 30.6 17.6 46 0.0 LegendMM LegendMM   100.10 36   LegendNANA
18:00 29.6 18.9 53 0.0 LegendMM LegendMM   100.14 36   LegendNANA
19:00 27.9 18.6 57 0.0 LegendMM LegendMM   100.19 34   LegendNANA
20:00 26.6 17.8 59 0.0 LegendMM LegendMM   100.22 32   LegendNANA
21:00 25.5 17.6 62 0.0 LegendMM LegendMM   100.27 31   LegendNANA
22:00 23.7 16.8 65 0.0 LegendMM LegendMM   100.31 29   LegendNANA
23:00 22.8 15.6 64 0.0 LegendMM LegendMM   100.29 27   LegendNANA

Notes on Data Quality.

Legend

  • E = Estimated
  • M = Missing
  • NA = Not Available*
  • [empty] = Indicates an unobserved value
Date modified: